• Join FlightAware (Why Join?)
  • Login
  • US Flag 
Gobble Gobble! 
08:43AM EST


 

Airport Tracker/Info


-or-


 

Live Flight TrackerFlight Track Log ✈ N545RW ✈ 19-Nov-2013 ✈ KILG - KCHA

Flight Track Log - Related Links

Times and Time Zones

All times are in EST time to prevent confusion due to time zone crossing. See the N545RW flight status page for this flight to view local times or setup timezone preferences in your user account.

Time Position Orientation Groundspeed Altitude Reporting Facility
EST Latitude Longitude Course Direction KTS MPH feet Rate Location/Type
04:31PM 39.7000 -75.6333 316° Northwest 191 220 2,000  Level Philadelphia TRACON
04:32PM 39.6900 -75.7350 263° West 237 273 2,500 1,440 Climbing New York Center
04:33PM 39.7372 -75.7544 342° North 164 189 5,200 2,340 Climbing New York Center
04:34PM 39.7911 -75.7583 357° North 166 191 7,200 2,400 Climbing New York Center
04:35PM 39.8047 -75.8322 284° West 197 227 10,000 2,640 Climbing New York Center
04:36PM 39.7667 -75.8942 231° Southwest 200 230 12,500 2,220 Climbing New York Center
04:37PM 39.7283 -75.9589 232° Southwest 216 249 14,500 2,160 Climbing New York Center
04:38PM 39.7006 -76.0189 239° Southwest 224 258 16,900 1,920 Climbing New York Center
04:39PM 39.6642 -76.0864 235° Southwest 230 265 18,400 1,620 Climbing New York Center
04:42PM 39.5700 -76.2539 234° Southwest 245 282 22,300 1,560 Climbing Washington Center
04:43PM 39.5342 -76.3261 237° Southwest 245 282 23,700 1,380 Climbing Washington Center
04:44PM 39.4922 -76.3983 233° Southwest 245 282 25,200 1,380 Climbing Washington Center
04:45PM 39.4500 -76.4703 233° Southwest 250 288 26,600 1,380 Climbing Washington Center
04:46PM 39.4014 -76.5503 232° Southwest 256 295 28,000 1,260 Climbing Washington Center
04:47PM 39.3611 -76.6222 234° Southwest 256 295 29,100 1,080 Climbing Washington Center
04:48PM 39.3189 -76.6969 234° Southwest 256 295 30,200 960 Climbing Washington Center
04:49PM 39.2764 -76.7739 235° Southwest 262 302 31,100 780 Climbing Washington Center
04:50PM 39.2319 -76.8508 233° Southwest 267 307 31,800 660 Climbing Washington Center
04:51PM 39.1894 -76.9253 234° Southwest 267 307 32,500 600 Climbing Washington Center
04:52PM 39.1469 -77.0047 235° Southwest 267 307 33,100 660 Climbing Washington Center
04:53PM 39.1064 -77.0842 237° Southwest 267 307 33,900 420 Climbing Washington Center
04:54PM 39.0617 -77.1636 234° Southwest 265 305 34,000  Climbing Washington Center
04:55PM 39.0064 -77.2425 228° Southwest 276 318 34,000  Level Washington Center
04:56PM 38.9592 -77.3269 234° Southwest 287 330 34,000  Level Washington Center
04:57PM 38.9081 -77.4136 233° Southwest 304 350 34,000  Level Washington Center
04:58PM 38.8544 -77.5003 232° Southwest 309 356 34,000  Level Washington Center
04:59PM 38.8117 -77.5683 231° Southwest 309 356 34,000  Level Washington Center
05:00PM 38.7536 -77.6708 234° Southwest 319 367 34,000  Level Washington Center
05:01PM 38.7042 -77.7625 235° Southwest 319 367 34,000  Level Washington Center
05:02PM 38.6525 -77.8514 233° Southwest 319 367 34,000  Level Washington Center
05:03PM 38.6008 -77.9400 233° Southwest 319 367 34,000  Level Washington Center
05:04PM 38.5469 -78.0286 232° Southwest 314 361 34,000  Level Washington Center
05:05PM 38.4950 -78.1197 234° Southwest 314 361 34,000  Level Washington Center
05:06PM 38.4431 -78.2081 233° Southwest 314 361 34,000  Level Washington Center
05:07PM 38.3911 -78.2936 232° Southwest 314 361 34,000  Level Washington Center
05:08PM 38.3389 -78.3819 233° Southwest 314 361 34,000  Level Washington Center
05:09PM 38.2869 -78.4697 233° Southwest 314 361 34,000  Level Washington Center
05:10PM 38.2322 -78.5681 235° Southwest 314 361 34,000  Level Washington Center
05:11PM 38.1800 -78.6533 232° Southwest 314 361 34,000  Level Washington Center
05:12PM 38.1344 -78.7306 233° Southwest 308 354 34,000  Level Washington Center
05:13PM 38.0819 -78.8181 233° Southwest 308 354 34,000  Level Washington Center
05:14PM 38.0294 -78.9028 232° Southwest 308 354 34,000  Level Washington Center
05:15PM 37.9769 -78.9928 234° Southwest 308 354 34,000  Level Washington Center
05:16PM 37.9181 -79.0847 231° Southwest 313 360 34,000  Level Washington Center
05:17PM 37.8775 -79.1831 242° Southwest 313 360 34,000  Level Washington Center
05:18PM 37.8372 -79.2758 241° Southwest 313 360 34,000  Level Washington Center
05:19PM 37.7967 -79.3708 242° Southwest 308 354 34,000  Level Washington Center
05:20PM 37.7586 -79.4583 241° Southwest 308 354 34,000  Level Washington Center
05:21PM 37.7178 -79.5561 242° Southwest 308 354 34,000  Level Washington Center
05:22PM 37.6731 -79.6481 238° Southwest 308 354 34,000  Level Washington Center
05:23PM 37.6278 -79.7506 241° Southwest 308 354 34,000  Level Washington Center
05:24PM 37.5867 -79.8506 243° Southwest 318 366 34,000  Level Washington Center
05:25PM 37.5433 -79.9503 241° Southwest 323 372 34,000  Level Washington Center
05:26PM 37.5050 -80.0344 240° Southwest 317 365 34,000  Level Washington Center
05:27PM 37.4264 -80.2003 239° Southwest 312 359 34,000  Level Atlanta Center
05:28PM 37.3836 -80.2989 241° Southwest 318 366 34,000  Level Atlanta Center
05:29PM 37.3408 -80.3950 241° Southwest 318 366 34,000  Level Atlanta Center
05:30PM 37.2958 -80.4989 241° Southwest 318 366 34,000  Level Atlanta Center
05:31PM 37.2528 -80.5944 241° Southwest 318 366 34,000  Level Atlanta Center
05:32PM 37.2094 -80.6903 240° Southwest 318 366 34,000  Level Atlanta Center
05:33PM 37.1661 -80.7858 240° Southwest 318 366 34,000  Level Atlanta Center
05:34PM 37.1267 -80.8708 240° Southwest 318 366 34,000  Level Atlanta Center
05:35PM 37.0833 -80.9636 240° Southwest 318 366 34,000  Level Atlanta Center
05:36PM 37.0417 -81.0589 241° Southwest 318 366 34,000  Level Atlanta Center
05:37PM 36.9961 -81.1542 239° Southwest 318 366 34,000  Level Atlanta Center
05:38PM 36.9544 -81.2492 241° Southwest 318 366 34,000  Level Atlanta Center
05:39PM 36.9067 -81.3519 240° Southwest 318 366 34,000  Level Atlanta Center
05:40PM 36.8631 -81.4444 240° Southwest 318 366 34,000  Level Atlanta Center
05:41PM 36.8189 -81.5392 240° Southwest 318 366 34,000  Level Atlanta Center
05:42PM 36.7811 -81.6311 243° Southwest 308 354 34,000  Level Atlanta Center
05:43PM 36.7433 -81.7150 241° Southwest 308 354 34,000  Level Atlanta Center
05:44PM 36.6992 -81.8044 238° Southwest 314 361 34,000  Level Atlanta Center
05:45PM 36.6569 -81.8986 241° Southwest 314 361 34,000  Level Atlanta Center
05:46PM 36.6125 -81.9903 239° Southwest 314 361 34,000  Level Atlanta Center
05:47PM 36.5683 -82.0847 240° Southwest 314 361 34,000  Level Atlanta Center
05:48PM 36.5258 -82.1733 239° Southwest 314 361 34,000  Level Atlanta Center
05:49PM 36.4814 -82.2675 240° Southwest 314 361 34,000  Level Atlanta Center
05:50PM 36.4389 -82.3614 241° Southwest 314 361 34,000  Level Atlanta Center
05:51PM 36.3942 -82.4500 238° Southwest 314 361 34,000  Level Atlanta Center
05:52PM 36.3494 -82.5436 239° Southwest 314 361 34,000 -300 Level Atlanta Center
05:53PM 36.3028 -82.6450 240° Southwest 314 361 33,500 -660 Descending Atlanta Center
05:54PM 36.2558 -82.7411 239° Southwest 319 367 32,700 -840 Descending Atlanta Center
05:55PM 36.2089 -82.8422 240° Southwest 324 373 31,900 -960 Descending Atlanta Center
05:56PM 36.1639 -82.9406 240° Southwest 335 386 30,800 -960 Descending Atlanta Center
05:57PM 36.1125 -83.0389 237° Southwest 340 391 30,000 -420 Descending Atlanta Center
05:58PM 36.0675 -83.1319 239° Southwest 335 386 30,000 -420 Level Atlanta Center
05:59PM 36.0222 -83.2300 240° Southwest 335 386 29,200 -960 Descending Atlanta Center
06:00PM 35.9769 -83.3306 241° Southwest 340 391 28,100 -1,200 Descending Atlanta Center
06:01PM 35.9253 -83.4311 238° Southwest 340 391 26,900 -1,200 Descending Atlanta Center
06:02PM 35.8778 -83.5314 240° Southwest 340 391 25,800 -1,080 Descending Atlanta Center
06:03PM 35.8322 -83.6161 236° Southwest 340 391 24,800 -900 Descending Atlanta Center
06:04PM 35.7844 -83.7086 238° Southwest 340 391 24,000 -840 Descending Atlanta Center
06:05PM 35.7431 -83.8033 242° Southwest 334 384 23,200 -1,140 Descending Atlanta Center
06:06PM 35.6972 -83.8931 238° Southwest 328 377 21,800 -1,440 Descending Atlanta Center
06:07PM 35.6514 -83.9825 238° Southwest 321 369 20,400 -1,440 Descending Atlanta Center
06:08PM 35.6097 -84.0694 240° Southwest 314 361 19,000 -1,320 Descending Atlanta Center
06:09PM 35.5658 -84.1536 237° Southwest 308 354 17,800 -1,380 Descending Atlanta Center
06:10PM 35.5242 -84.2453 241° Southwest 303 349 16,300 -1,500 Descending Atlanta Center
06:12PM 35.4569 -84.3362 238° Southwest  Level FlightAware Approximate
06:12PM 35.4361 -84.4186 238° Southwest 303 349 13,400  Level Atlanta Center
06:13PM 35.3897 -84.5050 237° Southwest 303 349 12,200 -1,200 Descending Atlanta Center
06:14PM 35.3500 -84.5889 240° Southwest 298 343 11,000 -1,140 Descending Atlanta Center
06:15PM 35.3056 -84.6750 238° Southwest 298 343 10,000 -1,440 Descending Atlanta Center
06:16PM 35.2633 -84.7586 238° Southwest 298 343 8,200 -1,680 Descending Atlanta Center
06:17PM 35.2233 -84.8397 239° Southwest 298 343 6,700 -1,500 Descending Atlanta Center
06:18PM 35.1811 -84.9181 237° Southwest 298 343 5,200 -1,500 Descending Atlanta Center
06:19PM 35.1306 -84.9886 229° Southwest 292 336 3,800 -1,500 Descending Atlanta Center
06:20PM 35.0881 -85.0642 236° Southwest 276 318 2,300 -900 Descending Atlanta Center
06:21PM 35.0519 -85.1375 239° Southwest 266 306 2,000 -300 Descending Atlanta Center
06:23PM 35.0333 -85.2000 248° West  Level FlightAware Approximate
06:30PM 35.0352 -85.2036 248° West  Level Estimated
06:31PM 35.0333 -85.2000 248° West  Level FlightAware Approximate
06:32PM 35.0352 -85.2036 248° West  Level Estimated